Latest METARs, TAFs and NOTAMs for SKCL


---------------------------------------------------------------------------
	(OBSERVATIONS)
SKCL 170900Z VRB02KT 9999 BKN040 21/21 A2991=
SKCL 170800Z VRB02KT 9999 BKN040 19/19 A2991=
SKCL 170700Z VRB02KT 9999 SCT040 21/21 A2992=
---------------------------------------------------------------------------
	(TERMINAL AREA FORECAST)
SKCL 170500Z 1706/1806 03006KT 9999 FEW025 SCT120
    TEMPO 1711/1717 17005KT
    BECMG 1717/1718 34010KT SCT020
    BECMG 1802/1804 03006KT
    TX33/1719Z TN19/1711Z=
---------------------------------------------------------------------------
	(NOTAMS)


SKCL A0144/17 PSN PRKG ACFT INSTL D-15 COORD 033211,18N0762310,69W
    D-16 COORD 033209,73N0762311,00W D-17 COORD 033208,25N0762311,13W
    D-18 COORD 033206,40N0762311,72W REF AIP AD-2-SKCL-APDC.
    13 JAN 19:15 2017 UNTIL PERM. CREATED: 13 JAN 19:18 2017

SKCL A0336/17 ACFT STAND INSTALLED: D19 COORD 033205,35N0762311,62W
    D20 COORD 033204,65N0762312,53W G1 COORD 033200,70N0762314,28W
    G2 COORD 033200,50N0762313,15W G3 COORD 033200,30N0762312,02W
    G4 COORD 033200,10N0762310,89W G5 COORD 033159,29N0762309,33W
    REF. AIP SKCL APDC. 31 JAN 21:30 2017 UNTIL PERM. CREATED:
    31 JAN 21:44 2017

SKCL A0463/17 RWY 02/20 LTD RESTRICTED FLT TRG DUE FAILURES FREQ
    AND FLOW OF TFC 15 FEB 14:15 UNTIL 22 FEB 23:59 ESTIMATED
    H24

SKCL A0632/17 TURBINE START POINT NR 08 INSTL NEXT COORD: 033207,81N0762307,42W
    TURBINE START POINT NR 09 INSTL NEXT COORD: 033203,04N0762308,24W
    03 MAR 15:00 UNTIL PERM

SKCL A1134/17 ACFT STAND G5 AUTH TEST ENGINES, ACFT TIL CAT B
    REF. AIP AD APDC. 25 APR 14:47 2017 UNTIL PERM. CREATED:
    25 APR 14:49 2017

SKCL A1223/17 PSN PRKG ACFT NOMENCLATURE CHANGE: PSN PRKG ACFT
    02 CHANGE TO PSN PRKG ACFT D15 PSN PRKG ACFT 03 CHANGE TO
    PSN PRKG ACFT C14 PSN PRKG ACFT 04 CHANGE TO PSN PRKG ACFT
    C13 PSN PRKG ACFT 05 CHANGE TO PSN PRKG ACFT C12 PSN PRKG
    ACFT 06 CHANGE TO PSN PRKG ACFT B11 PSN PRKG ACFT 07 CHANGE
    TO PSN PRKG ACFT B10 PSN PRKG ACFT 08 CHANGE TO PSN PRKG
    ACFT B9 PSN PRKG ACFT 09 CHANGE TO PSN PRKG ACFT B8 PSN PRKG
    ACFT 10 CHANGE TO PSN PRKG ACFT B7 PSN PRKG ACFT 11 CHANGE
    TO PSN PRKG ACFT B6 PSN PRKG ACFT 12 CHANGE TO PSN PRKG ACFT
    B5 PSN PRKG ACFT 13 CHANGE TO PSN PRKG ACFT A4 PSN PRKG ACFT
    14 CHANGE TO PSN PRKG ACFT A3 PSN PRKG ACFT 15 CHANGE TO
    PSN PRKG ACFT A2 PSN PRKG ACFT 16 CHANGE TO PSN PRKG ACFT
    A1 REF. AIP SKCL 2.20, APDC. 02 MAY 13:46 2017 UNTIL PERM.
    CREATED: 02 MAY 13:50 2017

SKCL A1237/17 HELIPORT H1, H2, H3 CLSD TO ALL NGT OPS REF. AIP
    AD 2.16 - SKCL. 03 MAY 19:05 2017 UNTIL PERM. CREATED: 03
    MAY 19:09 2017

SKCL A1669/17 TRIGGER NOTAM - PERM AIP SUP A16/17 WEF 13JUN2017
    RUNWAY TRAINING CONSTRAINTS REF. AIP SKCL AD 2.20. 13 JUN
    03:15 2017 UNTIL PERM. CREATED: 13 JUN 03:17 2017

SKCL A1818/17 TRIGGER NOTAM - PERM AIP SUP A18/17 WEF 28JUN2017
    ADC, APDC, APDC CARGA, SPOT CHART REF. AIP SKCL AD 2.2,2.12,2.13.
    28 JUN 23:00 2017 UNTIL PERM. CREATED: 01 JUL 07:10 2017

SKCL A2332/17 ENG START POINT NR 01 INSTL NEXT COORD: 033219,16N0762318,08W
    REF AIP AD 2 SKCL PLANO DE SPOTS. 25 AUG 21:38 2017 UNTIL
    PERM. CREATED: 25 AUG 21:54 2017

SKCL A2732/17 STRIP RWY 02/20 WIP EXER CTN. 30 SEP 00:01 2017
    UNTIL 31 DEC 23:59 2017. CREATED: 28 SEP 16:52 2017

SKCL A2733/17 STRIP TWY A1,B,C,D,E,A3,G,R,P,L,K WIP, EXER CTN.
    H24, 28 SEP 18:50 2017 UNTIL 31 DEC 23:59 2017. CREATED:
    28 SEP 18:52 2017

SKCL A2777/17 TRIGGER NOTAM - AIRAC AIP SUP A39/17 WEF 09NOV2017
    SKCL STAR 9 REF. AIP GEN 3.2, AD 2 - SKCL - STAR 9. 09 NOV
    00:00 2017 UNTIL 23 NOV 23:59 2017. CREATED: 03 OCT 10:37
    2017

SKCL A2788/17 ACFT STAND NR A-4 INSTL ON COORD 033215,070N0762316,930W.
    04 OCT 13:38 2017 UNTIL PERM. CREATED: 04 OCT 13:49 2017

SKCL A2850/17 APN, CARGO APN AND DESCONGESTION APN WIP, EXER
    CTN. GDN - UNL, 09 OCT 18:27 2017 UNTIL 31 DEC 23:59 2017.
    CREATED: 09 OCT 18:31 2017

---------------------------------------------------------------------------